Total_Precipitation_Accumulation
0.21 0.15 0.14 0.19 0.20 0.17 0.09 0.06 0.05 0.03 0.03 0.02 0.02 0.02 0.02 0.03 0.04 0.11 0.11 0.08 0.08 0.13 0.22 0.43 0.62 0.69 0.71 0.74 0.71 0.70 0.61 0.55 0.56 0.64 0.71 0.71 0.69 0.66 0.69 0.74 0.80 0.84 0.85 0.87 0.84 0.80 0.75 0.61 0.54
0.19 0.20 0.23 0.31 0.23 0.15 0.09 0.06 0.06 0.04 0.04 0.02 0.02 0.02 0.02 0.03 0.04 0.06 0.11 0.11 0.08 0.13 0.24 0.39 0.57 0.69 0.75 0.75 0.71 0.67 0.62 0.62 0.61 0.66 0.72 0.74 0.72 0.68 0.70 0.75 0.80 0.86 0.84 0.90 0.87 0.79 0.76 0.63 0.53
0.24 0.29 0.32 0.34 0.24 0.16 0.12 0.08 0.09 0.08 0.06 0.03 0.03 0.03 0.03 0.04 0.05 0.06 0.09 0.10 0.11 0.16 0.26 0.43 0.62 0.74 0.81 0.81 0.77 0.73 0.67 0.68 0.70 0.72 0.76 0.77 0.80 0.76 0.73 0.69 0.73 0.83 0.87 0.89 0.90 0.80 0.74 0.66 0.57
0.35 0.44 0.43 0.35 0.21 0.14 0.10 0.09 0.10 0.09 0.07 0.05 0.03 0.03 0.03 0.05 0.06 0.07 0.09 0.10 0.12 0.17 0.24 0.42 0.64 0.79 0.83 0.83 0.83 0.74 0.73 0.74 0.74 0.77 0.84 0.85 0.84 0.81 0.77 0.70 0.69 0.69 0.77 0.82 0.84 0.78 0.77 0.71 0.61
0.44 0.52 0.48 0.33 0.18 0.10 0.07 0.07 0.09 0.09 0.08 0.07 0.04 0.03 0.05 0.07 0.08 0.09 0.11 0.14 0.16 0.22 0.28 0.43 0.67 0.82 0.88 0.90 0.90 0.85 0.82 0.82 0.81 0.81 0.88 0.95 0.90 0.88 0.82 0.73 0.68 0.62 0.63 0.69 0.76 0.73 0.72 0.72 0.65
0.60 0.55 0.41 0.28 0.17 0.07 0.05 0.07 0.08 0.09 0.11 0.09 0.07 0.05 0.09 0.12 0.14 0.16 0.18 0.21 0.23 0.29 0.38 0.54 0.82 0.91 0.97 1.02 1.02 0.97 0.96 0.98 0.96 0.96 0.94 0.98 0.98 0.90 0.83 0.77 0.73 0.67 0.66 0.69 0.71 0.71 0.71 0.72 0.68
0.59 0.49 0.30 0.23 0.17 0.10 0.07 0.08 0.09 0.10 0.12 0.11 0.10 0.08 0.11 0.17 0.21 0.22 0.25 0.27 0.31 0.38 0.48 0.60 0.79 0.96 1.11 1.18 1.17 1.10 1.06 1.08 1.06 1.04 1.03 1.03 1.04 1.03 0.97 0.91 0.82 0.76 0.73 0.72 0.67 0.63 0.61 0.62 0.64
0.59 0.56 0.32 0.21 0.18 0.12 0.09 0.09 0.10 0.13 0.15 0.14 0.12 0.10 0.12 0.21 0.23 0.28 0.34 0.38 0.43 0.51 0.59 0.69 0.82 0.96 1.10 1.23 1.28 1.18 1.11 1.12 1.13 1.15 1.13 1.12 1.10 1.09 1.08 0.97 0.86 0.80 0.77 0.71 0.66 0.62 0.58 0.52 0.48
0.70 0.71 0.38 0.21 0.18 0.15 0.12 0.13 0.12 0.15 0.18 0.20 0.17 0.12 0.14 0.22 0.29 0.36 0.44 0.54 0.60 0.68 0.73 0.77 0.93 1.03 1.15 1.25 1.22 1.26 1.26 1.24 1.19 1.17 1.12 1.11 1.08 1.02 0.95 0.87 0.85 0.84 0.83 0.77 0.73 0.70 0.61 0.50 0.40
0.81 0.65 0.35 0.18 0.17 0.16 0.17 0.18 0.17 0.20 0.23 0.27 0.24 0.19 0.19 0.28 0.37 0.41 0.44 0.49 0.60 0.70 0.79 0.85 0.96 1.04 1.16 1.16 1.24 1.37 1.32 1.27 1.22 1.11 1.10 1.05 1.02 1.00 0.90 0.89 0.92 0.88 0.86 0.86 0.84 0.78 0.67 0.54 0.40
0.68 0.49 0.26 0.18 0.16 0.17 0.20 0.19 0.17 0.23 0.23 0.27 0.26 0.22 0.26 0.36 0.46 0.48 0.48 0.48 0.55 0.68 0.82 0.89 1.00 1.10 1.19 1.18 1.22 1.33 1.32 1.29 1.27 1.23 1.16 1.14 1.13 1.11 1.06 0.99 1.01 0.95 0.88 0.87 0.87 0.82 0.67 0.59 0.53
0.51 0.34 0.24 0.21 0.19 0.20 0.22 0.18 0.17 0.21 0.21 0.23 0.27 0.25 0.29 0.39 0.45 0.51 0.57 0.57 0.63 0.78 0.89 0.97 1.11 1.22 1.28 1.30 1.26 1.25 1.30 1.30 1.25 1.25 1.21 1.18 1.15 1.10 1.06 1.01 0.95 0.93 0.91 0.90 0.90 0.86 0.74 0.64 0.55
0.40 0.29 0.24 0.24 0.24 0.23 0.23 0.19 0.18 0.19 0.20 0.24 0.33 0.31 0.30 0.40 0.49 0.59 0.72 0.73 0.73 0.83 0.95 1.09 1.23 1.32 1.36 1.40 1.40 1.33 1.28 1.27 1.23 1.20 1.19 1.16 1.11 1.05 0.99 0.95 0.91 0.87 0.86 0.83 0.79 0.76 0.70 0.62 0.57
0.35 0.29 0.27 0.28 0.31 0.27 0.26 0.21 0.16 0.17 0.18 0.27 0.36 0.34 0.34 0.44 0.52 0.61 0.74 0.83 0.81 0.86 0.99 1.17 1.32 1.38 1.43 1.41 1.37 1.34 1.31 1.27 1.27 1.21 1.12 1.10 1.09 1.05 1.01 0.96 0.93 0.86 0.83 0.83 0.80 0.76 0.71 0.61 0.54
0.40 0.44 0.41 0.35 0.32 0.32 0.33 0.28 0.16 0.13 0.16 0.29 0.36 0.36 0.37 0.47 0.57 0.60 0.66 0.76 0.83 0.92 1.11 1.31 1.45 1.51 1.54 1.51 1.45 1.39 1.37 1.34 1.27 1.23 1.21 1.15 1.09 1.05 1.06 1.04 0.97 0.87 0.81 0.80 0.81 0.83 0.83 0.75 0.64
0.59 0.69 0.61 0.39 0.29 0.29 0.47 0.40 0.15 0.12 0.17 0.28 0.42 0.42 0.37 0.45 0.58 0.66 0.69 0.77 0.89 1.04 1.20 1.36 1.58 1.65 1.62 1.63 1.60 1.55 1.46 1.41 1.37 1.27 1.27 1.25 1.17 1.12 1.13 1.11 1.05 0.96 0.91 0.85 0.79 0.77 0.78 0.77 0.72
0.87 0.80 0.54 0.36 0.29 0.30 0.44 0.37 0.17 0.16 0.19 0.26 0.40 0.46 0.43 0.47 0.62 0.75 0.79 0.80 0.94 1.04 1.15 1.35 1.58 1.68 1.65 1.71 1.69 1.72 1.65 1.53 1.47 1.41 1.32 1.27 1.21 1.16 1.17 1.15 1.10 1.05 1.04 0.98 0.89 0.80 0.73 0.69 0.67
0.72 0.57 0.44 0.36 0.33 0.36 0.35 0.25 0.17 0.18 0.21 0.25 0.33 0.44 0.49 0.46 0.50 0.67 0.81 0.88 0.99 1.13 1.26 1.37 1.60 1.71 1.79 1.85 1.86 1.81 1.75 1.66 1.57 1.49 1.36 1.30 1.28 1.25 1.20 1.17 1.12 1.11 1.08 1.04 0.97 0.88 0.78 0.69 0.65
0.46 0.47 0.45 0.35 0.30 0.44 0.39 0.26 0.20 0.20 0.21 0.26 0.34 0.39 0.46 0.46 0.49 0.62 0.77 0.94 1.08 1.18 1.29 1.37 1.54 1.62 1.83 1.96 1.85 1.73 1.62 1.57 1.55 1.51 1.47 1.40 1.41 1.41 1.36 1.29 1.23 1.20 1.14 1.04 0.97 0.93 0.91 0.85 0.80
0.57 0.59 0.50 0.40 0.35 0.49 0.46 0.31 0.22 0.22 0.21 0.22 0.31 0.37 0.42 0.45 0.51 0.59 0.73 0.87 0.97 1.04 1.13 1.24 1.44 1.60 1.75 1.88 1.82 1.69 1.66 1.61 1.57 1.53 1.58 1.59 1.57 1.55 1.48 1.37 1.32 1.28 1.22 1.15 1.05 0.99 0.97 0.92 0.89
0.60 0.53 0.47 0.45 0.46 0.52 0.53 0.42 0.25 0.22 0.20 0.24 0.30 0.37 0.44 0.42 0.46 0.52 0.63 0.77 0.87 0.94 1.00 1.15 1.39 1.57 1.76 1.92 2.05 1.97 1.97 1.94 1.85 1.71 1.61 1.57 1.56 1.49 1.44 1.35 1.30 1.30 1.29 1.22 1.13 1.06 1.01 0.94 0.84
0.62 0.38 0.38 0.47 0.70 0.79 0.64 0.66 0.32 0.25 0.22 0.25 0.29 0.32 0.38 0.41 0.46 0.52 0.58 0.68 0.77 0.86 0.93 1.06 1.39 1.62 1.77 1.90 1.98 2.01 1.95 1.89 1.78 1.67 1.63 1.55 1.47 1.43 1.39 1.39 1.34 1.26 1.23 1.16 1.11 1.07 1.03 1.00 0.94
0.54 0.37 0.42 0.56 0.79 0.90 0.66 0.73 0.41 0.26 0.28 0.28 0.30 0.30 0.31 0.35 0.40 0.49 0.56 0.64 0.75 0.86 0.89 0.99 1.21 1.49 1.70 1.86 1.89 1.93 1.90 1.81 1.79 1.81 1.76 1.73 1.63 1.50 1.45 1.41 1.42 1.36 1.27 1.18 1.14 1.13 1.10 1.06 1.00
0.61 0.69 0.77 0.86 1.25 1.44 0.59 0.56 0.41 0.31 0.38 0.35 0.32 0.30 0.28 0.32 0.36 0.45 0.56 0.62 0.74 0.95 0.97 1.01 1.10 1.31 1.58 1.76 1.79 1.78 1.78 1.75 1.74 1.80 1.79 1.76 1.65 1.51 1.39 1.36 1.35 1.32 1.25 1.15 1.12 1.13 1.15 1.14 1.06
1.02 1.48 2.18 2.30 2.24 1.31 0.34 0.38 0.41 0.30 0.30 0.35 0.36 0.30 0.25 0.29 0.34 0.40 0.50 0.64 0.70 0.88 0.97 1.03 1.12 1.17 1.37 1.61 1.71 1.63 1.67 1.63 1.58 1.61 1.60 1.59 1.56 1.47 1.37 1.26 1.20 1.16 1.14 1.13 1.10 1.10 1.09 1.09 1.12
1.11 1.38 1.74 1.62 1.11 0.53 0.26 0.30 0.32 0.26 0.25 0.26 0.30 0.28 0.25 0.26 0.31 0.36 0.40 0.57 0.70 0.78 0.86 0.97 1.07 1.15 1.24 1.36 1.54 1.58 1.66 1.63 1.54 1.51 1.51 1.46 1.40 1.34 1.32 1.30 1.22 1.11 1.05 1.07 1.10 1.09 1.06 1.06 1.10
0.92 1.06 0.94 1.15 0.78 0.54 0.40 0.27 0.24 0.19 0.20 0.20 0.25 0.28 0.30 0.30 0.32 0.37 0.41 0.52 0.65 0.71 0.76 0.89 1.02 1.15 1.19 1.20 1.36 1.46 1.54 1.56 1.49 1.42 1.39 1.38 1.34 1.33 1.35 1.32 1.30 1.25 1.16 1.08 1.07 1.07 1.05 1.09 1.09
0.73 0.85 1.11 1.58 1.31 0.72 0.38 0.26 0.32 0.28 0.26 0.23 0.26 0.30 0.32 0.35 0.34 0.39 0.46 0.50 0.58 0.64 0.71 0.83 0.91 1.10 1.26 1.24 1.27 1.39 1.43 1.49 1.50 1.41 1.35 1.25 1.22 1.27 1.36 1.40 1.34 1.36 1.35 1.26 1.16 1.10 1.06 1.11 1.13
0.73 1.01 1.29 1.41 1.17 0.85 0.50 0.38 0.40 0.34 0.32 0.33 0.33 0.39 0.42 0.42 0.40 0.41 0.51 0.57 0.58 0.62 0.67 0.81 0.88 0.99 1.22 1.31 1.29 1.31 1.38 1.42 1.48 1.46 1.35 1.23 1.16 1.17 1.24 1.33 1.34 1.36 1.39 1.36 1.31 1.22 1.17 1.16 1.15
0.62 0.80 1.01 1.34 1.09 0.71 0.59 0.41 0.31 0.28 0.28 0.30 0.34 0.40 0.48 0.49 0.50 0.52 0.60 0.63 0.62 0.66 0.70 0.80 0.84 0.90 1.06 1.24 1.33 1.31 1.32 1.41 1.43 1.37 1.32 1.29 1.24 1.18 1.20 1.30 1.42 1.41 1.39 1.37 1.36 1.33 1.32 1.35 1.30